FW2365 Weather Reports


Display with metric or nautical units.
time (UTC)temp
F
wind
direction
speed
MPH
gust
MPH
rain 1hr
in
rain 24hr
in
rain mn
in
humidity
%
barometer
mb
20260902192512 67 304 0.0 2.0 0.00 0.00 0.00 61 1025.1
20260902192012 67 304 0.0 2.0 0.00 0.00 0.00 60 1025.0
20260902191516 67 158 0.0 0.0 0.00 0.00 0.00 59 1025.0
20260902191012 67 158 0.0 0.0 0.00 0.00 0.00 59 1025.0
20260902190512 67 158 0.0 0.0 0.00 0.00 0.00 60 1024.9
20260902190012 67 158 0.0 0.0 0.00 0.00 0.00 59 1024.8
20260902185512 67 158 0.0 0.0 0.00 0.00 0.00 59 1024.8
20260902185013 67 158 0.0 0.0 0.00 0.00 0.00 59 1024.8
20260902184511 68 158 0.0 0.0 0.00 0.00 0.00 58 1024.7
20260902184011 68 158 0.0 0.0 0.00 0.00 0.00 57 1024.6
20260902183511 68 158 0.0 0.0 0.00 0.00 0.00 58 1024.6
20260902183011 68 158 0.0 0.0 0.00 0.00 0.00 57 1024.5
20260902182611 68 158 0.0 0.0 0.00 0.00 0.00 57 1024.4
20260902182013 68 158 0.0 0.0 0.00 0.00 0.00 56 1024.3
20260902181512 68 158 0.0 1.0 0.00 0.00 0.00 57 1024.2
20260902181010 68 158 0.0 2.0 0.00 0.00 0.00 57 1024.2
20260902180510 68 158 0.0 2.0 0.00 0.00 0.00 57 1024.2
20260902180011 69 157 0.0 3.0 0.00 0.00 0.00 57 1024.1
20260902175510 69 155 0.0 3.0 0.00 0.00 0.00 58 1024.1
20260902175012 69 309 0.0 1.0 0.00 0.00 0.00 56 1023.9
20260902174509 69 359 0.0 1.0 0.00 0.00 0.00 56 1023.9
20260902174012 70 359 0.0 0.0 0.00 0.00 0.00 56 1023.8
20260902173509 70 359 0.0 0.0 0.00 0.00 0.00 56 1023.8
20260902173009 70 359 0.0 2.0 0.00 0.00 0.00 56 1023.8
20260902172509 70 359 0.0 2.0 0.00 0.00 0.00 55 1023.8
20260902172009 71 247 0.0 9.0 0.00 0.00 0.00 55 1023.7
20260902171511 71 241 1.0 9.0 0.00 0.00 0.00 55 1023.7
20260902171010 71 284 1.0 8.0 0.00 0.00 0.00 54 1023.6
20260902170508 71 320 1.0 8.0 0.00 0.00 0.00 54 1023.6
20260902170009 71 322 3.0 10.0 0.00 0.00 0.00 53 1023.5
20260902165509 71 309 2.0 12.0 0.00 0.00 0.00 54 1023.5
20260902165009 71 329 7.0 12.0 0.00 0.00 0.00 53 1023.4
20260902164507 71 320 5.0 15.0 0.00 0.00 0.00 53 1023.4
20260902164008 71 241 7.0 15.0 0.00 0.00 0.00 53 1023.4
20260902163508 71 297 8.0 13.0 0.00 0.00 0.00 54 1023.3
20260902163008 72 284 7.0 13.0 0.00 0.00 0.00 54 1023.2
20260902162507 72 304 5.0 13.0 0.00 0.00 0.00 54 1023.1
20260902162007 72 314 6.0 12.0 0.00 0.00 0.00 55 1023.1
20260902161507 72 309 2.0 9.0 0.00 0.00 0.00 56 1023.1
20260902161006 72 309 4.0 10.0 0.00 0.00 0.00 55 1023.1
20260902160511 72 329 6.0 12.0 0.00 0.00 0.00 56 1023.0
20260902160009 72 337 3.0 12.0 0.00 0.00 0.00 56 1023.0
20260902155512 72 293 3.0 12.0 0.00 0.00 0.00 56 1023.0
20260902155006 72 314 6.0 12.0 0.00 0.00 0.00 56 1023.1
20260902154505 72 266 5.0 12.0 0.00 0.00 0.00 56 1023.0
20260902154005 72 323 6.0 11.0 0.00 0.00 0.00 56 1023.0
20260902153508 72 314 4.0 10.0 0.00 0.00 0.00 56 1022.9
20260902153006 72 295 2.0 9.0 0.00 0.00 0.00 57 1022.9
20260902152505 72 285 5.0 9.0 0.00 0.00 0.00 55 1022.9
20260902152005 72 296 4.0 9.0 0.00 0.00 0.00 55 1022.9
20260902151506 73 304 3.0 9.0 0.00 0.00 0.00 56 1023.0
20260902151005 73 285 2.0 8.0 0.00 0.00 0.00 57 1023.1
20260902150504 73 295 2.0 7.0 0.00 0.00 0.00 56 1023.1
20260902150004 73 273 1.0 3.0 0.00 0.00 0.00 57 1023.1
20260902145503 73 274 0.0 4.0 0.00 0.00 0.00 58 1023.1
20260902145002 73 274 0.0 5.0 0.00 0.00 0.00 55 1023.2
20260902144502 73 324 2.0 8.0 0.00 0.00 0.00 57 1023.2
20260902144002 73 309 4.0 8.0 0.00 0.00 0.00 54 1023.3
20260902143502 74 304 2.0 8.0 0.00 0.00 0.00 54 1023.3
20260902143002 74 293 4.0 8.0 0.00 0.00 0.00 53 1023.3
20260902142501 74 292 3.0 5.0 0.00 0.00 0.00 52 1023.3
20260902142101 75 268 3.0 5.0 0.00 0.00 0.00 52 1023.3
20260902141601 75 284 2.0 4.0 0.00 0.00 0.00 56 1023.4
20260902141100 75 284 0.0 3.0 0.00 0.00 0.00 52 1023.4
20260902140601 75 285 0.0 5.0 0.00 0.00 0.00 53 1023.4
20260902140059 75 287 1.0 5.0 0.00 0.00 0.00 53 1023.4
20260902135557 75 304 0.0 4.0 0.00 0.00 0.00 57 1023.4
20260902135056 74 304 0.0 5.0 0.00 0.00 0.00 56 1023.4
20260902134555 74 314 1.0 5.0 0.00 0.00 0.00 55 1023.4
20260902134054 74 266 0.0 4.0 0.00 0.00 0.00 59 1023.4
20260902133553 74 197 1.0 4.0 0.00 0.00 0.00 59 1023.4
20260902133052 73 271 2.0 5.0 0.00 0.00 0.00 56 1023.4
20260902132551 73 289 3.0 9.0 0.00 0.00 0.00 58 1023.4
20260902132054 73 322 2.0 9.0 0.00 0.00 0.00 56 1023.4
20260902131607 73 290 3.0 9.0 0.00 0.00 0.00 60 1023.4
20260902131052 73 272 4.0 10.0 0.00 0.00 0.00 56 1023.5
20260902130551 72 309 5.0 11.0 0.00 0.00 0.00 59 1023.4
20260902130056 72 281 7.0 11.0 0.00 0.00 0.00 58 1023.5
20260902125550 73 309 6.0 11.0 0.00 0.00 0.00 58 1023.5
20260902125053 73 304 4.0 10.0 0.00 0.00 0.00 57 1023.6
20260902124549 73 285 4.0 9.0 0.00 0.00 0.00 57 1023.5
20260902124047 73 304 2.0 8.0 0.00 0.00 0.00 61 1023.5
20260902123546 73 295 4.0 8.0 0.00 0.00 0.00 59 1023.5
20260902123046 73 309 3.0 8.0 0.00 0.00 0.00 59 1023.6
20260902122546 73 304 2.0 8.0 0.00 0.00 0.00 60 1023.6
20260902122044 73 291 3.0 8.0 0.00 0.00 0.00 57 1023.5
20260902121547 73 289 4.0 8.0 0.00 0.00 0.00 57 1023.6
20260902121043 72 318 3.0 6.0 0.00 0.00 0.00 59 1023.7
20260902120542 72 300 3.0 9.0 0.00 0.00 0.00 58 1023.7
20260902120041 72 318 3.0 10.0 0.00 0.00 0.00 58 1023.9
20260902115543 73 324 4.0 10.0 0.00 0.00 0.00 59 1023.9
20260902115041 72 289 5.0 10.0 0.00 0.00 0.00 58 1024.0
20260902114549 72 282 4.0 8.0 0.00 0.00 0.00 59 1024.0
20260902114041 72 328 4.0 9.0 0.00 0.00 0.00 59 1024.0
20260902113536 71 296 5.0 9.0 0.00 0.00 0.00 63 1023.9
20260902113036 70 334 4.0 10.0 0.00 0.00 0.00 62 1024.0
20260902112535 70 304 5.0 10.0 0.00 0.00 0.00 63 1024.0
20260902112037 70 304 5.0 9.0 0.00 0.00 0.00 66 1024.2
20260902111540 70 314 5.0 8.0 0.00 0.00 0.00 65 1024.2
20260902111034 70 287 4.0 8.0 0.00 0.00 0.00 65 1024.2
20260902110534 71 328 3.0 8.0 0.00 0.00 0.00 66 1024.2
20260902110042 70 309 4.0 8.0 0.00 0.00 0.00 65 1024.4
20260902105531 70 309 3.0 8.0 0.00 0.00 0.00 65 1024.4
20260902105030 70 304 5.0 8.0 0.00 0.00 0.00 65 1024.3
20260902104537 69 304 4.0 5.0 0.00 0.00 0.00 66 1024.4
20260902104029 69 304 4.0 6.0 0.00 0.00 0.00 66 1024.5
20260902103528 69 304 4.0 6.0 0.00 0.00 0.00 65 1024.6
20260902103034 69 298 4.0 6.0 0.00 0.00 0.00 66 1024.7
20260902102527 69 309 3.0 5.0 0.00 0.00 0.00 66 1024.8
20260902102026 69 304 3.0 6.0 0.00 0.00 0.00 66 1024.9
20260902101625 69 304 4.0 6.0 0.00 0.00 0.00 65 1024.9
20260902101025 69 289 3.0 8.0 0.00 0.00 0.00 64 1025.0
20260902100524 70 295 5.0 8.0 0.00 0.00 0.00 64 1025.0
20260902100023 69 280 3.0 6.0 0.00 0.00 0.00 65 1025.1
20260902095522 69 290 2.0 6.0 0.00 0.00 0.00 67 1025.2
20260902095020 69 304 1.0 5.0 0.00 0.00 0.00 67 1025.2
20260902094519 68 304 0.0 3.0 0.00 0.00 0.00 66 1025.3
20260902094022 67 304 1.0 4.0 0.00 0.00 0.00 68 1025.3
20260902093516 66 304 2.0 4.0 0.00 0.00 0.00 69 1025.3
20260902093019 66 304 3.0 5.0 0.00 0.00 0.00 71 1025.4
20260902092514 66 304 3.0 5.0 0.00 0.00 0.00 71 1025.4
20260902092015 66 304 4.0 5.0 0.00 0.00 0.00 70 1025.5
20260902091514 66 304 3.0 6.0 0.00 0.00 0.00 70 1025.5
20260902091017 66 304 4.0 6.0 0.00 0.00 0.00 69 1025.6
20260902090514 66 304 2.0 8.0 0.00 0.00 0.00 68 1025.7
20260902090014 66 294 3.0 8.0 0.00 0.00 0.00 69 1025.7
20260902085513 66 297 4.0 8.0 0.00 0.00 0.00 69 1025.7
20260902085011 66 304 5.0 8.0 0.00 0.00 0.00 69 1025.7
20260902084510 65 295 4.0 6.0 0.00 0.00 0.00 70 1025.7
20260902084009 65 304 3.0 8.0 0.00 0.00 0.00 72 1025.7
20260902083507 64 298 4.0 8.0 0.00 0.00 0.00 73 1025.7
20260902083006 64 304 2.0 6.0 0.00 0.00 0.00 72 1025.7
20260902082507 64 304 4.0 5.0 0.00 0.00 0.00 74 1025.8
20260902082005 64 299 3.0 5.0 0.00 0.00 0.00 73 1025.7
20260902081504 64 304 4.0 5.0 0.00 0.00 0.00 74 1025.8
20260902081003 63 298 1.0 5.0 0.00 0.00 0.00 74 1025.7
20260902080503 63 319 0.0 0.0 0.00 0.00 0.00 74 1025.7
20260902080002 62 309 0.0 8.0 0.00 0.00 0.00 75 1025.8
20260902075502 62 309 4.0 8.0 0.00 0.00 0.00 75 1025.8
20260902075104 62 304 4.0 6.0 0.00 0.00 0.00 74 1025.9
20260902074559 62 309 4.0 9.0 0.00 0.00 0.00 76 1025.8
20260902074056 62 309 4.0 9.0 0.00 0.00 0.00 74 1025.9
20260902073555 62 309 4.0 8.0 0.00 0.00 0.00 75 1025.8
20260902073055 63 285 2.0 4.0 0.00 0.00 0.00 76 1025.8
20260902072553 63 278 0.0 3.0 0.00 0.00 0.00 75 1025.8
20260902072052 62 158 0.0 2.0 0.00 0.00 0.00 78 1025.8
20260902071551 62 158 0.0 2.0 0.00 0.00 0.00 78 1025.8
20260902071050 62 158 0.0 0.0 0.00 0.00 0.00 80 1025.8
20260902070548 61 158 0.0 0.0 0.00 0.00 0.00 79 1025.8
20260902070047 61 158 0.0 0.0 0.00 0.00 0.00 80 1025.9
20260902065545 60 158 0.0 0.0 0.00 0.00 0.00 80 1025.9
20260902065045 60 158 0.0 0.0 0.00 0.00 0.00 81 1025.9
20260902064546 60 158 0.0 0.0 0.00 0.00 0.00 80 1025.9
20260902064041 59 158 0.0 1.0 0.00 0.00 0.00 81 1025.9
20260902063543 60 158 0.0 1.0 0.00 0.00 0.00 80 1025.9
20260902063038 59 158 0.0 0.0 0.00 0.00 0.00 81 1025.9
20260902062537 59 158 0.0 0.0 0.00 0.00 0.00 80 1026.0
20260902062037 59 158 0.0 0.0 0.00 0.00 0.00 81 1026.0
20260902061536 58 158 0.0 0.0 0.00 0.00 0.00 82 1026.0
20260902061034 58 158 0.0 0.0 0.00 0.00 0.00 84 1026.0
20260902060532 57 158 0.0 0.0 0.00 0.00 0.00 84 1026.0
20260902060032 57 158 0.0 0.0 0.00 0.00 0.00 85 1026.1
20260902055531 57 158 0.0 0.0 0.00 0.00 0.00 86 1026.1
20260902055031 56 158 0.0 0.0 0.00 0.00 0.00 88 1026.0
20260902054532 56 158 0.0 0.0 0.00 0.00 0.00 88 1026.1
20260902054028 55 158 0.0 0.0 0.00 0.00 0.00 87 1026.1
20260902053528 55 158 0.0 0.0 0.00 0.00 0.00 88 1026.1
20260902053026 55 158 0.0 0.0 0.00 0.00 0.00 89 1026.1
20260902052523 54 158 0.0 0.0 0.00 0.00 0.00 89 1026.0
20260902052022 54 158 0.0 0.0 0.00 0.00 0.00 89 1026.0
20260902051525 54 158 0.0 0.0 0.00 0.00 0.00 89 1025.9
20260902051020 54 158 0.0 0.0 0.00 0.00 0.00 90 1025.9
20260902050521 54 158 0.0 0.0 0.00 0.00 0.00 90 1025.8
20260902050020 53 158 0.0 0.0 0.00 0.00 0.00 91 1025.8
20260902045518 53 158 0.0 0.0 0.00 0.00 0.00 91 1025.8
20260902045018 53 158 0.0 0.0 0.00 0.00 0.00 91 1025.8
20260902044518 53 158 0.0 0.0 0.00 0.00 0.00 90 1025.8
20260902044017 53 158 0.0 0.0 0.00 0.00 0.00 90 1025.8
20260902043517 53 158 0.0 0.0 0.00 0.00 0.00 91 1025.8
20260902043015 53 158 0.0 0.0 0.00 0.00 0.00 90 1025.7
20260902042515 53 158 0.0 0.0 0.00 0.00 0.00 90 1025.7
20260902042016 53 158 0.0 0.0 0.00 0.00 0.00 90 1025.6
20260902041514 53 158 0.0 0.0 0.00 0.00 0.00 90 1025.6
20260902041013 54 158 0.0 0.0 0.00 0.00 0.00 89 1025.6
20260902040514 54 158 0.0 0.0 0.00 0.00 0.00 89 1025.5
20260902040012 54 158 0.0 0.0 0.00 0.00 0.00 89 1025.5
20260902035512 54 158 0.0 0.0 0.00 0.01 0.00 89 1025.4
20260902035012 54 158 0.0 0.0 0.00 0.01 0.00 89 1025.4
20260902034511 54 158 0.0 0.0 0.00 0.01 0.00 89 1025.4
20260902034009 54 158 0.0 0.0 0.00 0.01 0.00 88 1025.5
20260902033512 54 158 0.0 0.0 0.00 0.01 0.00 88 1025.5
20260902033009 55 158 0.0 0.0 0.00 0.01 0.00 88 1025.5
20260902032510 55 158 0.0 0.0 0.00 0.01 0.00 88 1025.5
20260902032008 54 158 0.0 0.0 0.00 0.01 0.00 88 1025.5
20260902031508 54 158 0.0 0.0 0.00 0.01 0.00 88 1025.5
20260902031007 55 158 0.0 0.0 0.00 0.01 0.00 88 1025.6
20260902030506 55 158 0.0 0.0 0.00 0.01 0.00 88 1025.6
20260902030007 55 158 0.0 0.0 0.00 0.01 0.00 87 1025.6
20260902025506 55 158 0.0 0.0 0.00 0.01 0.00 87 1025.7
20260902025006 55 158 0.0 0.0 0.00 0.01 0.00 87 1025.6
20260902024505 55 158 0.0 0.0 0.00 0.01 0.00 88 1025.6
20260902024004 55 158 0.0 0.0 0.00 0.01 0.00 87 1025.6
20260902023503 55 158 0.0 0.0 0.00 0.01 0.00 86 1025.6
20260902023009 55 158 0.0 1.0 0.00 0.01 0.00 86 1025.6
20260902022502 56 158 0.0 1.0 0.00 0.01 0.00 85 1025.7
20260902022005 56 158 0.0 3.0 0.00 0.01 0.00 85 1025.6
20260902021507 56 158 1.0 3.0 0.00 0.01 0.00 86 1025.6
20260902021004 56 158 1.0 3.0 0.00 0.01 0.00 86 1025.7
20260902020602 56 158 2.0 3.0 0.00 0.01 0.00 86 1025.7
20260902020003 56 186 1.0 3.0 0.00 0.01 0.00 86 1025.7
20260902015601 55 283 0.0 0.0 0.00 0.01 0.00 86 1025.7
20260902015100 56 283 0.0 0.0 0.00 0.01 0.00 85 1025.7
20260902014600 56 283 0.0 0.0 0.00 0.01 0.00 85 1025.7
20260902014100 56 283 0.0 0.0 0.00 0.01 0.00 85 1025.8
20260902013559 56 283 0.0 0.0 0.00 0.01 0.00 85 1025.8
20260902013059 56 283 0.0 0.0 0.00 0.01 0.00 85 1025.8
20260902012558 56 283 0.0 0.0 0.00 0.01 0.00 85 1025.8
20260902012059 56 283 0.0 0.0 0.00 0.01 0.00 85 1025.8
20260902011557 56 283 0.0 0.0 0.00 0.01 0.00 85 1025.8
20260902011057 56 283 0.0 0.0 0.00 0.01 0.00 85 1025.8
20260902010556 56 283 0.0 0.0 0.00 0.01 0.00 85 1025.8
20260902010056 56 283 0.0 0.0 0.00 0.01 0.00 84 1025.8
20260902005556 56 283 0.0 2.0 0.00 0.01 0.00 84 1025.9
20260902005101 56 283 0.0 2.0 0.00 0.01 0.00 84 1025.8
20260902004556 56 283 0.0 2.0 0.00 0.01 0.00 84 1025.8
20260902004054 56 283 0.0 2.0 0.00 0.01 0.00 84 1025.8
20260902003555 56 283 1.0 2.0 0.00 0.01 0.00 83 1025.8
20260902003058 57 283 0.0 0.0 0.00 0.01 0.00 83 1025.9
20260902002556 57 283 0.0 0.0 0.00 0.01 0.00 83 1025.8
20260902002053 57 283 0.0 0.0 0.00 0.01 0.00 83 1025.8
20260902001553 57 283 0.0 0.0 0.00 0.01 0.00 83 1025.9
20260902001052 57 283 0.0 0.0 0.00 0.01 0.00 83 1025.9
20260902000553 57 283 0.0 0.0 0.00 0.01 0.00 83 1026.0
20260902000113 57 283 0.0 0.0 0.00 0.01 0.00 82 1026.0
20260901235554 57 283 0.0 0.0 0.00 0.01 0.00 82 1026.0
20260901235052 57 283 0.0 0.0 0.00 0.01 0.00 82 1026.0
20260901234552 57 283 0.0 0.0 0.00 0.01 0.00 82 1026.0
20260901234051 57 283 0.0 0.0 0.00 0.01 0.00 82 1026.0
20260901233551 57 283 0.0 0.0 0.00 0.01 0.00 82 1026.0
20260901233051 57 283 0.0 0.0 0.00 0.01 0.00 82 1026.1
20260901232550 57 283 0.0 0.0 0.00 0.01 0.00 82 1026.0
20260901232050 57 283 0.0 0.0 0.00 0.01 0.00 82 1026.0
20260901231551 57 283 0.0 0.0 0.00 0.01 0.00 81 1026.0
20260901231048 57 283 0.0 0.0 0.00 0.01 0.00 81 1026.0
20260901230547 58 283 0.0 0.0 0.00 0.01 0.00 81 1025.9
20260901230057 58 283 0.0 0.0 0.00 0.01 0.00 81 1025.9
20260901225545 58 283 0.0 0.0 0.00 0.01 0.00 81 1025.9
20260901225045 58 283 0.0 0.0 0.00 0.01 0.00 80 1025.9
20260901224545 58 283 0.0 0.0 0.00 0.01 0.00 80 1025.9
20260901224047 59 283 0.0 0.0 0.00 0.01 0.00 79 1025.8
20260901223545 59 283 0.0 0.0 0.00 0.01 0.00 80 1025.8
20260901223045 58 283 0.0 0.0 0.00 0.01 0.00 80 1025.8
20260901222544 58 283 0.0 0.0 0.00 0.01 0.00 81 1025.8
20260901222044 58 283 0.0 0.0 0.00 0.01 0.00 81 1025.7
20260901221543 58 283 0.0 0.0 0.00 0.01 0.00 81 1025.7
20260901221043 59 283 0.0 0.0 0.00 0.01 0.00 81 1025.8
20260901220542 59 283 0.0 0.0 0.00 0.01 0.00 81 1025.8
20260901220109 59 283 0.0 0.0 0.00 0.01 0.00 79 1025.8
20260901215540 59 283 0.0 0.0 0.00 0.01 0.01 79 1025.8
20260901215041 60 283 0.0 0.0 0.00 0.01 0.01 78 1025.8
20260901214540 60 283 0.0 0.0 0.00 0.01 0.01 78 1025.7
20260901214039 60 283 0.0 0.0 0.00 0.01 0.01 78 1025.8
20260901213540 60 283 0.0 0.0 0.00 0.01 0.01 77 1025.8
20260901213105 61 283 0.0 0.0 0.00 0.01 0.01 77 1025.8
20260901212539 61 283 0.0 0.0 0.00 0.01 0.01 76 1025.8
20260901212038 61 283 0.0 0.0 0.00 0.01 0.01 76 1025.8
20260901211539 61 283 0.0 0.0 0.00 0.01 0.01 76 1025.8
20260901211039 61 283 0.0 0.0 0.00 0.01 0.01 75 1025.9
20260901210539 61 283 0.0 0.0 0.00 0.01 0.01 74 1025.9
20260901210047 62 283 0.0 0.0 0.00 0.01 0.01 74 1025.8
20260901205538 62 283 0.0 0.0 0.00 0.01 0.01 74 1025.8
20260901205042 62 283 0.0 0.0 0.00 0.01 0.01 74 1025.9
20260901204540 62 283 0.0 0.0 0.00 0.01 0.01 74 1025.9
20260901204039 62 283 0.0 0.0 0.00 0.01 0.01 74 1025.9
20260901203538 62 283 0.0 0.0 0.00 0.01 0.01 74 1025.9
20260901203053 62 283 0.0 0.0 0.00 0.01 0.01 74 1025.9
20260901202537 62 283 0.0 0.0 0.00 0.01 0.01 73 1025.9
20260901202044 63 283 0.0 0.0 0.00 0.01 0.01 74 1025.8
20260901201537 63 283 0.0 0.0 0.00 0.01 0.01 75 1025.7
20260901201038 63 283 0.0 0.0 0.00 0.01 0.01 74 1025.8
20260901200537 63 283 0.0 0.0 0.00 0.01 0.01 74 1025.7
20260901200043 63 283 0.0 0.0 0.00 0.01 0.01 72 1025.7
20260901195537 64 283 0.0 0.0 0.00 0.01 0.01 73 1025.6
20260901195041 64 283 0.0 2.0 0.00 0.01 0.01 73 1025.6
20260901194542 64 283 0.0 2.0 0.00 0.01 0.01 73 1025.6
20260901194036 65 283 0.0 0.0 0.00 0.01 0.01 71 1025.6
20260901193536 65 283 0.0 0.0 0.00 0.01 0.01 65 1025.6
20260901193046 66 283 0.0 0.0 0.00 0.01 0.01 64 1025.6